Left ArrowRight Arrow

Hourly Observations for June 17, 2024

Temp ( °F °C ) Dew Point ( °F °C ) Humidity (%) Winds ( mph kmh ) Pressure ( in mb ) Visibility ( mi km ) Precip ( " mm )
12:56 am 00:56 Clear 80 26.7 71 21.7 74 74 S 18 30 29.77 1008 10 16 0.00 0.00
1:56 am 01:56 Clear 79 26.1 70 21.1 74 74 S 20 31 29.75 1007 10 16 0.00 0.00
2:56 am 02:56 Clear 78 25.6 69 20.6 74 74 S 20 31 29.73 1007 10 16 0.00 0.00
3:56 am 03:56 Clear 78 25.6 69 20.6 74 74 S 18 30 29.71 1006 10 16 0.00 0.00
4:56 am 04:56 Clear 77 25 69 20.6 77 77 S 18 30 29.70 1006 10 16 0.00 0.00
5:56 am 05:56 Clear 76 24.4 70 21.1 82 82 S 18 30 29.72 1006 10 16 0.00 0.00
6:56 am 06:56 Sunny 76 24.4 71 21.7 85 85 S 16 26 29.73 1007 10 16 0.00 0.00
7:56 am 07:56 Sunny 79 26.1 71 21.7 77 77 S 22 35 29.75 1007 10 16 0.00 0.00
8:56 am 08:56 Sunny 81 27.2 71 21.7 72 72 S 26 43 29.75 1008 10 16 0.00 0.00
9:56 am 09:56 Sunny 84 28.9 73 22.8 70 70 S 25 41 29.74 1007 10 16 0.00 0.00
10:56 am 10:56 Sunny 87 30.6 72 22.2 61 61 S 26 43 29.73 1007 10 16 0.00 0.00
11:56 am 11:56 Mostly Sunny 90 32.2 72 22.2 56 56 S 24 39 29.72 1006 10 16 0.00 0.00
12:56 pm 12:56 Mostly Cloudy 90 32.2 71 21.7 54 54 SSE 24 39 29.71 1006 10 16 0.00 0.00
1:56 pm 13:56 Mostly Cloudy 91 32.8 71 21.7 52 52 SSE 25 41 29.70 1006 10 16 0.00 0.00
2:56 pm 14:56 Partly Cloudy 94 34.4 69 20.6 45 45 S 28 44 29.68 1005 10 16 0.00 0.00
3:56 pm 15:56 Partly Cloudy 93 33.9 70 21.1 47 47 SSE 26 43 29.65 1004 10 16 0.00 0.00
4:56 pm 16:56 Mostly Sunny 91 32.8 71 21.7 52 52 SSE 25 41 29.64 1004 10 16 0.00 0.00
5:56 pm 17:56 Partly Cloudy 90 32.2 72 22.2 56 56 SSE 28 44 29.64 1004 10 16 0.00 0.00
6:56 pm 18:56 Mostly Cloudy 88 31.1 72 22.2 59 59 SSE 23 37 29.65 1004 10 16 0.00 0.00
7:56 pm 19:56 Sunny 87 30.6 70 21.1 57 57 S 26 43 29.65 1004 10 16 0.00 0.00
8:56 pm 20:56 Mostly Clear 84 28.9 71 21.7 65 65 SSE 18 30 29.67 1005 10 16 0.00 0.00
9:56 pm 21:56 Clear 82 27.8 72 22.2 72 72 SSE 17 28 29.68 1005 10 16 0.00 0.00
10:56 pm 22:56 Clear 81 27.2 73 22.8 77 77 SSE 20 31 29.69 1005 10 16 0.00 0.00
11:56 pm 23:56 Clear 81 27.2 73 22.8 77 77 S 28 44 29.68 1005 10 16 0.00 0.00

Powered by Vaisala Xweather